Location: El Diablo
(32.4667°N, 116.4500°W)
Time: 03:02:52
(UTC+00:00)

Cosmos 1602 - Pass Details

Date: 10 September 2024
Orbit: 455 x 471 km, 82.5° (Epoch: 06 October)

Event Time Altitude Azimuth Distance (km) Brightness Sun altitude
Rises 12:20:57 0° 351° (N) 2,474 7.2 -14.5°
Reaches altitude 10° 12:23:02 10° 349° (N) 1,597 6.2 -14.1°
Maximum altitude 12:26:29 70° 266° (W) 487 3.3 -13.4°
Drops below altitude 10° 12:29:56 10° 181° (S) 1,589 6.0 -12.6°
Sets 12:32:00 0° 179° (S) 2,461 7.0 -12.2°
